DW7530 Weather Reports


Display with metric or nautical units.
time (UTC)temp
F
wind
direction
speed
MPH
gust
MPH
rain 1hr
in
rain 24hr
in
rain mn
in
humidity
%
barometer
mb
20260504221529 62 215 1.0 8.0 0.00 0.01 0.01 53 1005.9
20260504220042 61 320 1.0 5.0 0.00 0.01 0.01 56 1006.0
20260504214533 61 196 0.0 8.0 0.00 0.01 0.01 55 1005.9
20260504213031 62 204 2.0 10.0 0.00 0.01 0.01 54 1005.8
20260504211536 62 300 2.0 11.0 0.00 0.01 0.01 57 1005.7
20260504210026 62 283 3.0 8.0 0.00 0.01 0.01 57 1005.7
20260504204536 62 220 6.0 14.0 0.00 0.01 0.01 57 1005.6
20260504203025 62 243 5.0 13.0 0.00 0.01 0.01 56 1005.5
20260504201526 62 302 5.0 13.0 0.00 0.01 0.01 57 1005.6
20260504200023 62 268 2.0 10.0 0.00 0.01 0.01 63 1005.5
20260504194520 60 191 5.0 9.0 0.00 0.02 0.01 64 1005.5
20260504193017 58 201 4.0 12.0 0.00 0.02 0.01 71 1005.7
20260504191513 56 221 4.0 8.0 0.00 0.02 0.01 75 1005.7
20260504190013 54 222 5.0 9.0 0.01 0.02 0.01 78 1006.0
20260504184511 53 222 1.0 4.0 0.01 0.04 0.01 84 1006.0
20260504183010 52 222 2.0 5.0 0.01 0.04 0.01 85 1006.3
20260504181507 52 218 0.0 6.0 0.00 0.03 0.00 83 1006.5
20260504180006 54 308 1.0 5.0 0.00 0.03 0.00 76 1006.8
20260504174506 55 297 3.0 9.0 0.00 0.05 0.00 71 1006.4
20260504173004 56 335 4.0 10.0 0.00 0.05 0.00 69 1006.1
20260504171506 54 174 1.0 4.0 0.00 0.05 0.00 71 1006.0
20260504081552 36 233 0.0 3.0 0.00 0.47 0.00 79 1007.5
20260504080153 36 235 0.0 4.0 0.00 0.47 0.00 79 1007.4
20260504044533 40 308 1.0 6.0 0.00 0.49 0.00 67 1006.4
20260504043030 41 299 2.0 5.0 0.00 0.49 0.00 66 1006.4
20260504041518 41 298 2.0 6.0 0.00 0.49 0.00 67 1006.4
20260504040019 41 316 2.0 6.0 0.00 0.49 0.00 66 1006.3
20260504034514 41 314 1.0 5.0 0.00 0.49 0.49 66 1006.0
20260504033013 41 314 1.0 7.0 0.00 0.49 0.49 65 1005.8
20260504031517 42 317 2.0 5.0 0.00 0.49 0.49 64 1005.9
20260504030014 42 318 4.0 9.0 0.00 0.49 0.49 62 1005.7
20260504024512 42 323 3.0 7.0 0.00 0.49 0.49 62 1005.6
20260504023011 43 322 5.0 9.0 0.00 0.49 0.49 61 1005.5
20260504021513 43 327 4.0 9.0 0.00 0.49 0.49 60 1005.4
20260504020012 43 255 4.0 9.0 0.00 0.49 0.49 60 1005.2
20260504014510 44 303 4.0 8.0 0.00 0.49 0.49 60 1005.2
20260504013011 44 296 5.0 11.0 0.00 0.49 0.49 59 1005.0
20260504011507 44 318 4.0 9.0 0.00 0.49 0.49 58 1005.0
20260504010007 44 319 6.0 11.0 0.00 0.49 0.49 58 1004.7
20260504004515 45 318 5.0 10.0 0.00 0.49 0.49 59 1004.5
20260504003005 45 295 6.0 10.0 0.00 0.49 0.49 60 1004.1
20260504001505 46 324 6.0 13.0 0.00 0.49 0.49 61 1003.9
20260504000004 46 308 5.0 9.0 0.00 0.49 0.49 66 1003.6
20260503234502 46 309 4.0 7.0 0.00 0.49 0.49 73 1003.3
20260503233059 46 294 1.0 4.0 0.00 0.49 0.49 84 1003.2
20260503231607 46 294 1.0 4.0 0.00 0.49 0.49 84 1003.0
20260503230116 47 294 1.0 5.0 0.00 0.49 0.49 82 1002.7
20260503224604 47 294 2.0 7.0 0.00 0.49 0.49 81 1002.7
20260503223056 47 299 4.0 7.0 0.00 0.49 0.49 83 1002.6